STARLINK-32516, 62176

Orbit data source: Space-Track

STARLINK-32516, 62176 is a payload satellite owned by SpaceX/Seattle (US) in LEO that was launched on Sat, 30 Nov 2024 UTC via an FALCON 9 launch vehicle from the Air Force Western Test Range (AFWTR). Payload-class satellites include a variety of spacecraft equipped with specific instruments for various scientific and technological missions. These include communications satellites like Starlink; space stations such as the ISS; scientific satellites like the Hubble; Earth observation satellites from companies like Planet Labs, Umbra, and HawkEye 360; GPS; miniature CubeSats for education and research; and military/defense satellites.

Loading next visibility...
Identifier
62176, 2024-225P
Orbit
LEO
Country
Flag of USUS
Related business
Manufacturer
SpaceX/Seattle
Mission
Operational Commercial Communications
Bus & Motor
STARLINK V2M, Unknown motor
Mass
730 kg wet, ~700 kg dry
Launch date (UTC)
2024-11-30 (1 year ago)
Launch vehicle
FALCON 9
Launch site
Air Force Western Test Range (AFWTR)
Object type
Payload
Rocket body
Debris
Shape & HBR
Box + 2 Pan, 17.7 m
Radar Cross Section
33.884 m², Large (>1 m²)

Expand to show TLE details & history
Last TLE update: 12 hours ago

TLE from 12 hours ago
0 STARLINK-32516
1 62176U 24225P   26062.75635153 -.00016434  00000-0 -13729-2 0  9992
2 62176  70.0038 179.5186 0004446 338.6800  21.4173 14.98320062 68989
Epoch: 2026-03-03T18:09Z
TLE epoch observation values (Epoch: 2026-03-03T18:09:08.772Z)
Latitude
-0.00002°
Longitude
105.7012°
Altitude
571.634 km
Speed
7.577 km/s
True Right ascension
11h 58m 04s
True Declination
0° 00' 00"
Sunlit
Object was in full shadow at epoch
Visualization orbit readout
Latitude
Unknown
Longitude
Unknown
Altitude
Unknown
Speed
Unknown
Apparent Right ascension
Unknown
Apparent Declination
Unknown
Sunlit
N/A
Visualization observer readout
Local Sidereal Time
10:02:13
Azimuth
Unknown
Elevation
Unknown
Doppler factor
Unknown
Orbital elements
Apogee altitude
573.124 km
Perigee altitude
566.945 km
Semi-major axis
6,948.171 km
Eccentricity
0.00044
Inclination
70.0038°
RAAN
179.5186°
Arg. of periapsis
338.68°
True anomaly
21.43591°
Mean anomaly
21.4173°
Eccentric anomaly
21.42661°
Mean motion
3.74746 °/min
Orbital period
96.06 mins
BSTAR
-0.0013729
Loading maneuver chart data...
Computing Atmospheric mass density...
Loading historical data...
Loading historical data...
Loading historical data...
Loading historical data...
Loading historical data...
Loading historical data...
Loading historical data...

Documentation

Showing up to 5 results
|